Location: Oakhurst
(33.6448°N, 111.9543°W)
Time: 01:21:37
(UTC+00:00)

FO-99 - Pass Details

Date: 31 July 2021
Orbit: 471 x 503 km, 97.2° (Epoch: 24 September)

Event Time Altitude Azimuth Distance (km) Brightness Sun altitude
Exits shadow 03:06:53 - 156° (SSE) 2,142 ? -7.9°
Reaches altitude 10° 03:07:56 10° 153° (SSE) 1,708 ? -8.1°
Maximum altitude 03:11:31 52° 76° (ENE) 633 ? -8.8°
Drops below altitude 10° 03:15:08 10° 360° (N) 1,723 ? -9.4°
Sets 03:17:15 0° 355° (N) 2,610 ? -9.8°
